Location: Central Falls
(41.8900°N, 71.3929°W)
Time: 15:34:54
(UTC+00:00)

Vanguard 1 - Pass Details

Date: 08 December 2023
Orbit: 653 x 3826 km, 34.3° (Epoch: 24 February)

Event Time Altitude Azimuth Distance (km) Brightness Sun altitude
Rises 04:58:53 0° 284° (WNW) 7,643 14.6 -70.3°
Reaches altitude 10° 05:04:58 10° 275° (W) 6,828 14.2 -69.9°
Enters shadow 05:05:48 11° 273° (W) 6,724 14.2 -69.9°
Maximum altitude 05:22:37 29° 226° (SW) 5,311 - -68.6°
Drops below altitude 10° 05:38:09 10° 174° (S) 5,924 - -67.0°
Sets 05:43:03 0° 164° (SSE) 6,521 - -66.4°
